Location: Agadir Irigdalene
(31.2522°N, 8.7797°W)
Time: 14:49:33
(UTC+00:00)

CENTAUR R/B - Pass Details

Date: 01 December 2020
Orbit: 750 x 1438 km, 63.4° (Epoch: 11 January)

Event Time Altitude Azimuth Distance (km) Brightness Sun altitude
Rises 17:55:01 0° 176° (S) 3,243 5.5 -5.3°
Reaches altitude 10° 17:57:40 10° 163° (SSE) 2,374 4.6 -5.8°
Maximum altitude 18:02:05 26° 108° (ESE) 1,649 3.3 -6.7°
Drops below altitude 10° 18:07:00 10° 54° (NE) 2,674 4.2 -7.7°
Enters shadow 18:07:44 - 51° (NE) 2,910 4.4 -7.8°
